Probability
0 0 0 0 0 0 0 0 0 0 0 0 0 0 0 0 0 0 0 0 0 0 0 0 0 0 0 0 0 0 0 0 0 0 0 0 0 0 0 0 0 0 0
0 0 0 0 0 0 0 0 0 0 0 0 0 0 0 0 0 0 0 0 0 0 0 0 0 0 0 0 0 0 0 0 0 0 0 0 0 0 0 0 0 0 0
0 0 0 0 0 0 0 0 0 0 0 0 0 0 0 0 0 0 0 0 0 0 0 0 0 0 0 0 0 0 0 0 0 0 0 0 0 0 0 0 0 0 0
0 0 0 0 0 0 0 0 0 0 0 0 0 0 0 0 0 0 0 0 0 0 0 0 0 0 0 0 0 0 0 0 0 0 0 0 0 0 0 0 0 0 0
0 0 0 0 0 0 0 0 0 0 0 0 0 0 0 0 0 0 0 0 0 0 0 0 0 0 0 0 0 0 0 0 0 0 0 0 0 0 0 0 0 0 0
0 0 0 0 0 0 0 0 0 0 0 0 0 0 0 0 0 0 0 0 0 0 0 0 0 0 0 0 0 0 0 0 0 0 0 0 0 0 0 0 0 0 0
0 0 0 0 0 0 0 0 0 0 0 0 0 0 0 0 0 0 0 0 0 0 0 0 0 0 0 0 0 0 0 0 0 0 0 0 0 0 0 0 0 0 0
0 0 0 0 0 0 0 0 0 0 0 0 0 0 0 0 0 0 0 0 0 0 0 0 0 0 0 0 0 0 0 0 0 0 0 0 0 0 0 0 0 0 0
0 0 0 0 0 0 0 0 0 0 0 0 0 0 0 0 0 0 0 0 0 0 0 0 0 0 0 0 0 0 0 0 0 0 0 0 0 0 0 0 0 0 0
0 0 0 0 0 0 0 0 0 0 0 0 0 0 0 0 0 0 0 0 0 0 0 0 0 0 0 0 0 0 0 0 0 0 0 0 0 0 0 0 0 0 0
0 0 0 0 0 0 0 0 0 0 0 0 0 0 0 0 0 0 0 0 0 0 0 0 0 0 0 0 0 0 0 0 0 0 0 0 0 0 0 0 0 0 0
0 0 0 0 0 0 0 0 0 0 0 0 0 0 0 0 0 0 0 0 0 0 0 0 0 0 0 0 0 0 0 0 0 0 0 0 0 0 0 0 0 0 0
0 0 0 0 0 0 0 0 0 0 0 0 0 0 0 0 0 0 0 0 0 0 0 0 0 0 0 0 0 0 0 0 0 0 0 0 0 0 0 0 0 0 0
0 0 0 0 0 0 0 0 0 0 0 0 0 0 0 0 0 0 0 0 0 0 0 0 0 0 0 0 0 0 0 0 0 0 0 0 0 0 0 0 0 0 0
0 0 0 0 0 0 0 0 0 0 0 0 0 0 0 0 0 0 0 0 0 0 0 0 0 0 0 0 0 0 0 0 0 0 0 0 0 0 0 0 0 0 0
0 0 0 0 0 0 0 0 0 0 0 0 0 0 0 0 0 0 0 0 0 0 0 0 0 0 0 0 0 0 0 0 0 0 0 0 0 0 0 0 0 0 0
0 0 0 0 0 0 0 0 0 0 0 0 0 0 0 0 0 0 0 0 0 0 0 0 0 0 0 0 0 0 0 0 0 0 0 0 0 0 0 0 0 0 0
0 0 0 0 0 0 0 0 0 0 0 0 0 0 0 0 0 0 0 0 0 0 0 0 0 0 0 0 0 0 0 0 0 0 0 0 0 0 0 0 0 0 0
0 0 0 0 0 0 0 0 0 0 0 0 0 0 0 0 0 0 0 0 0 0 0 0 0 0 0 0 0 0 0 0 0 0 0 0 0 0 0 0 0 0 0
0 0 0 0 0 0 0 0 0 0 0 0 0 0 0 0 0 0 0 0 0 0 0 0 0 0 0 0 0 0 0 0 0 0 0 0 0 0 0 0 0 0 0
0 0 0 0 0 0 0 0 0 0 0 0 0 0 0 0 0 0 0 0 0 0 0 0 0 0 0 0 0 0 0 0 0 0 0 0 0 0 0 0 0 0 0
0 0 0 0 0 0 0 0 0 0 0 0 0 0 0 0 0 0 0 0 0 0 0 0 0 0 0 0 0 0 0 0 0 0 0 0 0 0 0 0 0 0 0
0 0 0 0 0 0 0 0 0 0 0 0 0 0 0 0 0 0 0 0 0 0 0 0 0 0 0 0 0 0 0 0 0 0 0 0 0 0 0 0 0 0 0
0 0 0 0 0 0 0 0 0 0 0 0 0 0 0 0 0 0 0 0 0 0 0 0 0 0 0 0 0 0 0 0 0 0 0 0 0 0 0 0 0 0 0
0 0 0 0 0 0 0 0 0 0 0 0 0 0 0 0 0 0 0 0 0 0 0 0 0 0 0 0 0 0 0 0 0 0 0 0 0 0 0 0 0 0 0
0 0 0 0 0 0 0 0 0 0 0 0 0 0 0 0 0 0 0 0 0 0 0 0 0 0 0 0 0 0 0 0 0 0 0 0 0 0 0 0 0 0 0
Height
5820 5819 5818 5816 5814 5811 5809 5807 5804 5801 5799 5796 5793 5789 5786 5783 5780 5777 5774 5772 5770 5769 5768 5767 5768 5768 5769 5770 5772 5774 5776 5778 5781 5784 5787 5790 5792 5796 5799 5802 5805 5809 5812
5818 5817 5815 5814 5812 5809 5807 5805 5803 5800 5797 5795 5792 5789 5786 5783 5780 5777 5774 5772 5771 5769 5768 5767 5767 5767 5768 5769 5770 5771 5773 5776 5778 5781 5783 5786 5789 5791 5794 5797 5800 5803 5806
5815 5814 5812 5811 5809 5807 5805 5803 5801 5799 5796 5794 5791 5788 5785 5782 5780 5777 5774 5772 5771 5769 5768 5767 5766 5766 5767 5767 5768 5769 5771 5773 5775 5777 5779 5782 5784 5787 5790 5793 5795 5798 5801
5812 5811 5809 5808 5806 5805 5803 5801 5799 5797 5794 5792 5790 5787 5784 5782 5779 5776 5774 5772 5770 5769 5767 5766 5766 5765 5765 5766 5766 5767 5769 5770 5772 5774 5775 5777 5780 5782 5785 5788 5790 5793 5796
5808 5807 5806 5804 5803 5802 5800 5798 5796 5794 5792 5790 5788 5785 5783 5780 5778 5775 5773 5771 5770 5768 5767 5766 5765 5764 5764 5764 5764 5765 5766 5767 5768 5770 5771 5773 5775 5777 5780 5782 5785 5787 5790
5804 5803 5802 5800 5799 5798 5796 5795 5793 5791 5789 5787 5785 5783 5781 5779 5776 5774 5772 5770 5768 5767 5766 5764 5763 5763 5762 5762 5762 5762 5763 5764 5765 5766 5767 5769 5770 5772 5774 5776 5779 5781 5784
5800 5799 5797 5796 5795 5793 5792 5790 5789 5787 5786 5784 5782 5780 5778 5776 5774 5772 5770 5768 5767 5765 5764 5763 5762 5761 5760 5760 5759 5760 5760 5760 5761 5762 5763 5765 5766 5768 5769 5771 5773 5775 5777
5794 5793 5792 5791 5789 5788 5787 5785 5784 5783 5781 5780 5778 5776 5775 5773 5771 5769 5767 5766 5764 5763 5761 5760 5759 5758 5757 5757 5757 5756 5756 5757 5757 5758 5759 5760 5761 5762 5764 5765 5767 5768 5770
5788 5787 5786 5784 5783 5782 5781 5780 5778 5777 5776 5774 5773 5772 5770 5769 5767 5765 5764 5762 5761 5759 5758 5757 5756 5755 5754 5753 5753 5753 5753 5753 5753 5754 5754 5755 5756 5757 5758 5759 5760 5762 5763
5780 5779 5778 5777 5776 5775 5774 5773 5772 5770 5769 5768 5767 5766 5765 5763 5762 5761 5759 5758 5757 5755 5754 5753 5752 5751 5751 5750 5749 5749 5748 5748 5749 5749 5749 5750 5750 5751 5752 5752 5753 5755 5756
5772 5771 5770 5769 5768 5766 5766 5765 5764 5763 5762 5761 5760 5760 5759 5757 5756 5755 5754 5753 5752 5751 5750 5749 5748 5747 5746 5745 5745 5744 5744 5744 5744 5744 5744 5744 5745 5745 5746 5746 5747 5748 5749
5763 5761 5760 5759 5758 5757 5756 5756 5755 5754 5754 5753 5753 5752 5751 5750 5749 5748 5747 5746 5745 5745 5744 5743 5742 5742 5741 5740 5739 5739 5738 5738 5738 5738 5739 5739 5739 5739 5740 5740 5740 5741 5742
5753 5751 5750 5749 5748 5747 5746 5745 5745 5744 5744 5744 5743 5743 5743 5742 5741 5740 5740 5739 5738 5738 5737 5737 5736 5736 5735 5734 5734 5733 5733 5732 5732 5732 5733 5733 5733 5733 5733 5733 5734 5734 5734
5742 5741 5740 5739 5738 5736 5735 5735 5734 5733 5733 5733 5733 5733 5733 5732 5732 5731 5731 5731 5730 5730 5730 5729 5729 5729 5728 5728 5727 5727 5726 5726 5726 5726 5726 5726 5726 5726 5726 5727 5727 5727 5727
5729 5728 5728 5727 5726 5725 5724 5723 5722 5722 5721 5721 5721 5721 5721 5722 5722 5721 5721 5721 5721 5721 5721 5721 5721 5721 5721 5720 5720 5720 5719 5719 5719 5719 5719 5719 5719 5719 5719 5719 5719 5720 5720
5716 5715 5714 5713 5712 5711 5710 5710 5709 5709 5708 5708 5708 5708 5709 5710 5710 5709 5710 5710 5710 5711 5711 5712 5712 5712 5712 5712 5712 5712 5712 5712 5712 5712 5712 5712 5712 5712 5712 5712 5712 5712 5711
5701 5700 5699 5698 5697 5696 5695 5695 5695 5695 5694 5694 5694 5695 5695 5696 5696 5697 5698 5698 5699 5700 5701 5702 5702 5702 5703 5703 5703 5703 5703 5703 5703 5703 5703 5704 5704 5704 5703 5703 5703 5703 5703
5684 5683 5682 5681 5680 5679 5679 5678 5678 5678 5679 5680 5680 5680 5681 5682 5683 5684 5685 5686 5687 5689 5690 5691 5692 5692 5693 5693 5693 5694 5694 5694 5694 5695 5695 5695 5694 5694 5694 5694 5694 5694 5693
5666 5665 5664 5663 5662 5662 5661 5661 5661 5661 5662 5664 5665 5666 5667 5668 5669 5670 5671 5672 5675 5677 5678 5679 5680 5681 5682 5683 5683 5684 5684 5685 5685 5685 5685 5685 5685 5685 5685 5685 5684 5684 5684
5647 5645 5644 5643 5643 5643 5643 5643 5643 5644 5644 5646 5648 5650 5651 5652 5654 5656 5658 5659 5661 5663 5665 5667 5668 5669 5671 5672 5672 5673 5674 5674 5675 5675 5675 5675 5675 5675 5675 5675 5674 5674 5673
5628 5626 5624 5623 5623 5623 5623 5624 5624 5625 5627 5629 5631 5633 5635 5637 5639 5641 5643 5645 5647 5649 5652 5654 5655 5657 5658 5660 5661 5662 5662 5663 5664 5664 5664 5665 5665 5665 5665 5664 5664 5664 5663
5608 5606 5605 5604 5603 5603 5604 5604 5605 5607 5609 5610 5613 5615 5617 5620 5623 5625 5628 5631 5633 5635 5637 5640 5642 5644 5645 5647 5648 5649 5650 5651 5652 5653 5653 5654 5654 5654 5654 5654 5653 5653 5652
5588 5586 5585 5584 5583 5584 5584 5585 5587 5588 5590 5592 5595 5597 5600 5603 5606 5610 5612 5615 5618 5620 5623 5625 5628 5630 5632 5633 5635 5637 5638 5640 5641 5641 5642 5642 5643 5643 5643 5642 5642 5642 5641
5568 5566 5565 5564 5564 5564 5565 5566 5568 5569 5571 5574 5576 5580 5583 5587 5590 5593 5597 5599 5603 5606 5608 5611 5614 5616 5618 5620 5622 5624 5626 5627 5628 5629 5630 5631 5631 5631 5631 5631 5630 5630 5629
5549 5547 5546 5546 5546 5546 5547 5548 5550 5552 5554 5556 5559 5563 5566 5569 5573 5577 5581 5584 5587 5590 5593 5596 5599 5602 5604 5606 5609 5611 5612 5614 5615 5617 5617 5618 5619 5619 5619 5619 5619 5618 5617
5531 5529 5528 5528 5528 5528 5529 5530 5533 5535 5537 5540 5543 5546 5550 5553 5557 5561 5565 5568 5571 5575 5578 5581 5584 5587 5590 5592 5595 5597 5599 5601 5602 5604 5605 5606 5606 5606 5607 5607 5606 5606 5605
Wind_Speed
11 11 12 13 13 13 13 14 14 14 14 14 15 15 15 14 14 13 11 10 8 7 5 4 5 6 8 9 10 12 14 15 17 18 20 20 21 21 23 25 25 26 28
11 12 12 13 13 13 13 13 14 14 14 14 14 14 14 14 13 13 11 10 8 7 5 4 3 5 7 8 9 11 13 14 15 16 18 19 21 22 22 23 24 24 26
12 12 13 13 14 14 14 14 14 14 14 14 14 14 14 13 13 12 11 10 9 7 6 4 3 4 6 7 8 10 12 14 15 16 17 19 20 20 22 22 23 24 25
14 14 14 14 15 14 14 14 14 14 14 14 14 14 13 13 12 12 11 9 8 7 6 5 5 4 6 7 8 9 11 13 15 16 17 18 20 21 22 23 24 25 25
15 15 15 15 16 16 15 15 15 15 15 14 14 14 13 13 12 11 10 10 9 8 7 6 6 6 6 7 8 9 11 13 14 16 16 17 19 21 22 23 24 25 26
17 17 17 17 17 17 17 16 16 16 16 15 15 14 14 13 12 12 11 10 9 9 8 7 7 7 7 8 8 9 11 12 14 15 16 17 18 20 21 22 23 25 26
19 19 19 19 19 18 18 18 18 18 17 17 16 15 15 14 13 12 12 11 11 10 9 8 8 8 9 9 9 10 12 13 14 15 16 17 18 20 20 22 23 24 25
21 21 22 22 21 21 20 20 20 20 19 19 18 17 16 15 15 14 13 13 12 11 11 10 9 9 9 10 10 11 12 13 14 16 17 17 18 19 21 22 23 24 26
23 23 23 23 23 23 23 22 22 21 21 21 20 19 18 18 17 16 15 15 14 13 13 12 11 11 11 11 11 12 13 14 15 16 17 18 18 19 21 22 23 24 25
26 25 26 26 26 26 25 25 24 24 23 23 22 21 21 20 19 19 18 17 16 15 14 14 14 13 13 13 13 13 14 15 15 16 17 18 19 19 20 21 22 23 25
28 28 28 29 29 28 28 27 27 27 26 25 25 24 23 22 22 21 20 20 19 18 17 17 16 16 15 15 15 15 15 16 16 17 17 18 19 19 20 21 21 23 24
31 31 31 31 31 31 31 30 30 30 29 28 27 27 26 25 24 24 23 22 21 20 19 19 18 18 18 17 17 17 17 17 18 18 18 18 19 20 20 21 22 23 24
34 33 33 32 32 33 33 33 33 32 32 31 30 29 28 28 28 27 26 25 24 23 22 21 20 20 20 19 19 18 18 19 19 19 20 20 20 21 21 22 22 23 24
36 36 35 35 35 35 35 36 35 35 34 34 33 32 31 31 30 30 29 28 27 26 24 23 23 22 22 22 21 21 20 20 20 21 21 21 21 22 22 23 24 24 25
39 39 38 38 39 38 38 38 38 38 37 37 36 35 34 33 32 32 31 30 29 28 27 26 26 25 25 24 24 23 23 22 22 22 22 22 22 23 23 23 24 24 25
43 42 42 42 42 42 41 41 41 40 40 40 39 38 37 36 36 35 34 33 32 31 30 29 28 27 26 26 25 25 24 24 24 24 24 24 24 25 25 25 25 25 26
46 45 45 45 45 45 45 44 44 43 43 42 41 40 40 39 38 37 36 35 34 33 32 31 30 30 29 28 27 27 26 26 26 26 26 26 27 27 27 27 27 27 28
49 48 48 47 47 47 47 47 47 46 45 44 43 42 41 41 40 40 39 38 37 36 34 34 33 32 31 30 30 29 29 28 28 28 28 28 29 29 29 29 29 29 29
53 52 51 50 49 49 49 49 48 47 46 46 44 43 43 43 42 41 41 40 39 38 36 35 35 34 33 32 32 31 30 30 30 29 29 29 30 30 30 30 31 31 31
56 55 54 53 52 52 51 50 49 48 48 47 46 45 45 45 45 44 43 42 41 40 39 38 37 36 35 35 34 33 33 32 32 31 31 31 30 30 31 31 32 32 32
56 56 55 54 53 53 52 51 51 50 49 48 48 48 47 47 46 46 45 44 43 42 41 40 39 38 37 37 36 35 34 34 33 33 32 32 32 32 32 32 32 32 33
56 56 55 54 53 53 53 52 51 51 50 49 49 49 49 48 47 47 46 45 44 44 43 42 41 40 38 37 37 35 35 34 34 34 33 33 33 33 33 33 33 33 33
57 56 55 54 54 52 52 52 51 51 51 50 51 51 50 49 48 48 47 47 46 45 45 44 42 41 40 39 38 37 37 36 35 34 34 34 34 34 34 34 34 34 34
56 55 54 53 52 52 51 51 51 51 50 50 51 51 51 50 49 48 48 47 46 46 45 44 43 42 42 40 39 39 38 38 37 36 36 36 36 36 36 35 35 35 36
53 53 51 51 50 50 50 50 49 49 48 49 49 49 50 50 49 49 48 47 46 46 46 45 44 43 43 41 40 40 40 40 39 38 37 37 36 36 36 36 35 35 35
51 49 48 48 48 48 49 48 48 47 47 47 46 47 48 48 48 48 48 47 46 46 46 45 44 44 44 42 41 41 41 40 39 39 38 37 37 37 36 36 36 36 36
Wind_Direction
309 313 318 323 327 331 333 336 337 340 342 344 347 350 351 352 352 353 353 355 355 351 336 301 260 238 237 236 232 229 226 226 226 224 226 230 231 229 225 224 226 228 229
306 309 312 316 321 325 328 332 334 335 337 340 344 347 348 350 351 352 352 352 351 350 347 326 279 248 244 241 236 231 227 227 229 229 231 233 234 234 232 231 230 230 230
300 303 306 310 314 317 320 324 327 330 332 335 338 342 345 346 348 348 348 347 347 345 340 327 294 259 247 245 240 234 231 231 231 232 233 233 233 235 236 236 234 234 233
296 300 303 305 307 309 312 315 319 322 325 328 331 335 338 342 343 345 346 344 341 340 335 323 297 271 257 252 246 239 236 235 234 235 237 235 234 234 235 235 236 236 235
293 296 300 302 302 302 304 307 311 313 316 319 322 326 329 332 336 338 339 338 335 329 322 315 303 283 269 260 251 246 243 241 239 240 241 239 238 237 237 237 238 239 238
292 294 295 297 298 298 298 300 302 305 307 311 313 316 319 321 323 326 328 326 325 322 317 307 299 289 275 266 259 253 250 249 245 243 243 243 243 241 241 240 241 242 242
290 291 293 293 294 294 294 295 296 297 299 303 305 307 309 310 312 314 316 316 315 313 310 304 296 288 280 274 266 257 254 252 249 246 245 247 246 244 244 244 243 245 245
289 289 289 290 291 291 290 290 290 291 293 295 298 299 301 302 302 303 304 305 304 304 302 300 296 290 283 276 269 264 260 256 253 249 248 249 248 248 247 247 246 246 247
288 288 288 288 288 288 288 287 286 287 288 289 291 293 293 295 295 294 295 297 297 294 293 292 292 290 286 282 275 268 262 260 258 256 253 252 252 252 252 251 249 249 249
287 287 286 286 286 286 285 285 283 283 283 284 285 286 287 289 289 288 288 289 290 288 286 285 285 284 283 282 278 273 267 263 263 260 257 255 254 255 256 256 253 251 252
286 286 285 284 284 283 283 282 282 280 280 280 281 281 282 284 284 284 284 284 284 283 282 280 279 279 278 277 277 273 269 266 265 263 261 259 257 257 258 259 257 255 255
285 284 283 283 282 281 280 280 279 279 278 278 278 278 278 279 280 280 280 279 279 278 278 276 276 275 275 275 275 273 270 266 265 262 261 261 261 260 260 260 259 258 259
283 283 283 282 281 281 280 279 278 277 277 277 276 276 275 275 275 276 276 276 275 274 273 273 272 272 272 272 272 272 271 269 266 264 262 262 263 263 263 262 261 261 261
282 281 281 280 280 280 279 278 278 277 275 274 274 274 273 272 272 272 273 273 273 273 271 270 269 269 270 271 271 271 271 270 268 265 264 263 264 265 265 265 265 265 265
282 280 279 279 278 277 277 276 276 275 274 272 271 271 271 270 270 269 269 270 271 271 270 269 268 268 268 269 269 270 270 269 268 267 266 265 266 267 267 268 267 267 267
281 280 279 278 276 275 275 274 274 272 271 270 269 269 268 267 266 266 266 267 268 268 268 268 268 268 267 268 268 268 269 269 268 267 267 267 268 268 269 269 269 269 269
282 281 279 277 275 274 273 273 272 270 269 269 268 267 265 264 264 263 263 264 265 266 266 267 267 267 267 268 268 268 269 269 268 268 268 268 268 269 269 270 270 270 271
281 281 279 277 275 273 273 272 271 269 268 267 266 265 263 263 262 261 261 262 262 263 264 265 265 266 266 267 268 268 268 268 268 268 268 269 269 269 270 270 270 270 272
281 280 279 277 275 273 272 271 271 268 267 265 264 263 262 261 260 260 260 260 261 262 262 262 263 264 265 266 266 267 267 267 267 267 268 268 268 269 269 270 270 271 272
282 280 278 276 274 273 271 270 268 266 266 263 262 261 260 259 259 259 259 259 259 260 260 261 262 262 263 264 265 266 266 266 267 267 268 269 269 270 270 270 271 272 273
282 280 277 275 273 272 270 268 266 264 264 262 260 260 259 258 259 258 258 258 258 258 259 259 260 261 262 263 264 265 265 265 266 267 267 268 269 270 271 272 272 273 274
282 280 277 275 273 271 269 268 266 263 262 260 258 258 257 257 257 257 256 256 256 256 257 258 258 259 260 261 262 262 263 264 265 266 266 267 268 270 271 272 274 275 275
281 280 277 274 272 270 268 267 265 263 261 259 257 256 255 255 255 255 255 255 256 256 256 257 257 257 257 258 259 260 261 262 264 266 267 268 270 271 272 273 274 275 276
281 279 277 274 271 269 268 266 264 262 260 257 256 255 254 254 254 254 253 254 255 255 255 255 255 256 256 256 257 258 260 261 263 265 266 268 270 272 273 274 274 275 276
280 278 276 274 271 269 268 265 263 262 259 257 256 255 254 253 253 252 252 252 253 254 253 254 254 254 255 256 257 258 259 261 262 264 266 267 269 271 272 273 274 276 276
280 278 276 274 271 269 267 264 261 259 258 256 256 255 254 252 251 250 250 251 252 252 253 253 254 254 254 256 258 259 259 261 262 263 265 267 269 271 272 273 274 275 276